Location: Baix
(44.7118°N, 4.7648°E)
Time: 05:19:24
(UTC+00:00)

Vanguard 1 - Pass Details

Date: 04 December 2020
Orbit: 648 x 3834 km, 34.3° (Epoch: 21 January)

Event Time Altitude Azimuth Distance (km) Brightness Sun altitude
Rises 05:40:59 0° 254° (WSW) 3,374 - -13.8°
Exits shadow 05:42:56 - 247° (WSW) 2,725 11.9 -13.5°
Reaches altitude 10° 05:43:11 10° 246° (WSW) 2,645 11.8 -13.5°
Maximum altitude 05:48:59 39° 178° (S) 1,841 11.6 -12.5°
Drops below altitude 10° 05:58:45 10° 116° (ESE) 4,453 15.0 -10.9°
Sets 06:03:41 0° 110° (ESE) 6,012 16.5 -10.0°
